Terminal Aerodrome Forecast
Issued by NWS

Home | Current Version | Previous Version | Text Only | Print | Product List | Glossary On
Versions: 1 2 3 4 5 6 7 8 9 10 11 12 13 14 15 16 17 18 19 20 21 22 23 24 25 26 27 28 29 30 31 32 33 34 35 36
000
FTUS44 KOUN 280532
TAFGAG
TAF
KGAG 280532Z 2806/2906 17010KT P6SM BKN120
     FM281400 18015G20KT P6SM BKN100
     FM282000 18012G16KT P6SM -RA OVC040 PROB30 2821/2903 4SM TSRA
      BKN025CB=

USA.gov is the U.S. government's official web portal to all federal, state and local government web resources and services.